Time,TemperatureF,DewpointF,PressureIn,WindDirection,WindDirectionDegrees,WindSpeedMPH,WindSpeedGustMPH,Humidity,HourlyPrecipIn,Conditions,Clouds,dailyrainin,SolarRadiationWatts/m^2,SoftwareType,DateUTC
2014-11-26 00:02:00,50.0,28.0,-100.00,NNE,13,1.0,3.0,43,0.00,,,0.00,0.000000,,2014-11-26 08:02:00,
2014-11-26 00:12:00,50.0,28.0,-100.00,NNE,13,1.0,3.0,43,0.00,,,0.00,0.000000,,2014-11-26 08:12:00,
2014-11-26 00:42:00,50.0,28.0,-100.00,North,9,1.0,4.0,43,0.00,,,0.00,0.000000,,2014-11-26 08:42:00,
2014-11-26 00:53:00,50.0,28.0,-100.00,North,9,1.0,4.0,43,0.00,,,0.00,0.000000,,2014-11-26 08:53:00,
2014-11-26 01:03:00,50.0,28.0,-100.00,North,9,1.0,4.0,43,0.00,,,0.00,0.000000,,2014-11-26 09:03:00,
2014-11-26 01:12:00,50.0,28.0,-100.00,North,9,1.0,4.0,43,0.00,,,0.00,0.000000,,2014-11-26 09:12:00,
2014-11-26 01:43:00,51.0,29.0,-100.00,North,9,2.0,3.0,42,0.00,,,0.00,0.000000,,2014-11-26 09:43:00,
2014-11-26 01:54:00,51.0,29.0,-100.00,North,9,2.0,3.0,42,0.00,,,0.00,0.000000,,2014-11-26 09:54:00,
2014-11-26 02:04:00,51.0,29.0,-100.00,North,9,2.0,3.0,42,0.00,,,0.00,0.000000,,2014-11-26 10:04:00,
2014-11-26 02:13:00,51.0,29.0,-100.00,North,9,2.0,3.0,42,0.00,,,0.00,0.000000,,2014-11-26 10:13:00,
2014-11-26 02:43:00,51.0,29.0,-100.00,NNE,12,1.0,4.0,42,0.00,,,0.00,0.000000,,2014-11-26 10:43:00,
2014-11-26 02:53:00,51.0,29.0,-100.00,NNE,12,1.0,4.0,42,0.00,,,0.00,0.000000,,2014-11-26 10:53:00,
2014-11-26 03:02:00,51.0,29.0,-100.00,NNE,12,1.0,4.0,42,0.00,,,0.00,0.000000,,2014-11-26 11:02:00,
2014-11-26 03:11:00,51.0,29.0,-100.00,NNE,12,1.0,4.0,42,0.00,,,0.00,0.000000,,2014-11-26 11:11:00,
2014-11-26 03:42:00,51.0,28.0,-100.00,North,9,2.0,4.0,41,0.00,,,0.00,0.000000,,2014-11-26 11:42:00,
2014-11-26 03:53:00,51.0,28.0,-100.00,North,9,2.0,4.0,41,0.00,,,0.00,0.000000,,2014-11-26 11:53:00,
2014-11-26 04:02:00,51.0,28.0,-100.00,North,9,2.0,4.0,41,0.00,,,0.00,0.000000,,2014-11-26 12:02:00,
2014-11-26 04:12:00,51.0,28.0,-100.00,North,9,2.0,4.0,41,0.00,,,0.00,0.000000,,2014-11-26 12:12:00,
2014-11-26 04:42:00,50.0,28.0,-100.00,NNE,13,1.0,4.0,42,0.00,,,0.00,0.000000,,2014-11-26 12:42:00,
2014-11-26 04:52:00,50.0,28.0,-100.00,NNE,13,1.0,4.0,42,0.00,,,0.00,0.000000,,2014-11-26 12:52:00,
2014-11-26 05:02:00,50.0,28.0,-100.00,NNE,13,1.0,4.0,42,0.00,,,0.00,0.000000,,2014-11-26 13:02:00,
2014-11-26 05:12:00,50.0,28.0,-100.00,NNE,13,1.0,4.0,42,0.00,,,0.00,0.000000,,2014-11-26 13:12:00,
2014-11-26 05:42:00,51.0,28.0,-100.00,NNE,14,2.0,4.0,40,0.00,,,0.00,0.000000,,2014-11-26 13:42:00,
2014-11-26 05:52:00,51.0,28.0,-100.00,NNE,14,2.0,4.0,40,0.00,,,0.00,0.000000,,2014-11-26 13:52:00,
2014-11-26 06:02:00,51.0,28.0,-100.00,NNE,14,2.0,4.0,40,0.00,,,0.00,0.000000,,2014-11-26 14:02:00,
2014-11-26 06:12:00,51.0,28.0,-100.00,NNE,14,2.0,4.0,40,0.00,,,0.00,0.000000,,2014-11-26 14:12:00,
2014-11-26 06:42:00,51.0,27.0,-100.00,NNE,12,2.0,4.0,39,0.00,,,0.00,0.000000,,2014-11-26 14:42:00,
2014-11-26 06:52:00,51.0,27.0,-100.00,NNE,12,2.0,4.0,39,0.00,,,0.00,0.000000,,2014-11-26 14:52:00,
2014-11-26 07:03:00,51.0,27.0,-100.00,NNE,12,2.0,4.0,39,0.00,,,0.00,0.000000,,2014-11-26 15:03:00,
2014-11-26 07:12:00,51.0,27.0,-100.00,NNE,12,2.0,4.0,39,0.00,,,0.00,0.000000,,2014-11-26 15:12:00,
2014-11-26 07:44:00,52.0,27.0,-100.00,NNE,13,2.0,4.0,37,0.00,,,0.00,2.000000,,2014-11-26 15:44:00,
2014-11-26 07:54:00,52.0,27.0,-100.00,NNE,13,2.0,4.0,37,0.00,,,0.00,2.000000,,2014-11-26 15:54:00,
2014-11-26 08:03:00,52.0,27.0,-100.00,NNE,13,2.0,4.0,37,0.00,,,0.00,2.000000,,2014-11-26 16:03:00,
2014-11-26 08:13:00,52.0,27.0,-100.00,NNE,13,2.0,4.0,37,0.00,,,0.00,2.000000,,2014-11-26 16:13:00,
2014-11-26 08:44:00,57.0,30.0,-100.00,NNE,31,1.0,6.0,36,0.00,,,0.00,91.000000,,2014-11-26 16:44:00,
2014-11-26 08:54:00,57.0,30.0,-100.00,NNE,31,1.0,6.0,36,0.00,,,0.00,91.000000,,2014-11-26 16:54:00,
2014-11-26 09:03:00,57.0,30.0,-100.00,NNE,31,1.0,6.0,36,0.00,,,0.00,91.000000,,2014-11-26 17:03:00,
2014-11-26 09:13:00,57.0,30.0,-100.00,NNE,31,1.0,6.0,36,0.00,,,0.00,91.000000,,2014-11-26 17:13:00,
2014-11-26 09:53:00,65.0,35.0,-100.00,North,-999,0.0,3.0,33,0.00,,,0.00,305.000000,,2014-11-26 17:53:00,
2014-11-26 10:02:00,65.0,35.0,-100.00,North,-999,0.0,3.0,33,0.00,,,0.00,305.000000,,2014-11-26 18:02:00,
2014-11-26 10:43:00,70.0,36.0,-100.00,SE,131,3.0,5.0,29,0.00,,,0.00,424.000000,,2014-11-26 18:43:00,
2014-11-26 10:53:00,70.0,36.0,-100.00,SE,131,3.0,5.0,29,0.00,,,0.00,424.000000,,2014-11-26 18:53:00,
2014-11-26 11:03:00,70.0,36.0,-100.00,SE,131,3.0,5.0,29,0.00,,,0.00,424.000000,,2014-11-26 19:03:00,
2014-11-26 11:12:00,70.0,36.0,-100.00,SE,131,3.0,5.0,29,0.00,,,0.00,424.000000,,2014-11-26 19:12:00,
2014-11-26 11:42:00,72.0,40.0,-100.00,South,184,2.0,5.0,31,0.00,,,0.00,542.000000,,2014-11-26 19:42:00,
2014-11-26 11:53:00,72.0,40.0,-100.00,South,184,2.0,5.0,31,0.00,,,0.00,542.000000,,2014-11-26 19:53:00,
2014-11-26 12:02:00,72.0,40.0,-100.00,South,184,2.0,5.0,31,0.00,,,0.00,542.000000,,2014-11-26 20:02:00,
2014-11-26 12:12:00,72.0,40.0,-100.00,South,184,2.0,5.0,31,0.00,,,0.00,542.000000,,2014-11-26 20:12:00,
2014-11-26 12:52:00,76.0,37.0,-100.00,SSW,202,2.0,6.0,24,0.00,,,0.00,583.000000,,2014-11-26 20:52:00,
2014-11-26 13:03:00,76.0,37.0,-100.00,SSW,202,2.0,6.0,24,0.00,,,0.00,583.000000,,2014-11-26 21:03:00,
2014-11-26 13:12:00,76.0,37.0,-100.00,SSW,202,2.0,6.0,24,0.00,,,0.00,583.000000,,2014-11-26 21:12:00,
2014-11-26 13:45:00,76.0,38.0,-100.00,SW,223,1.0,6.0,25,0.00,,,0.00,559.000000,,2014-11-26 21:45:00,
2014-11-26 13:54:00,76.0,38.0,-100.00,SW,223,1.0,6.0,25,0.00,,,0.00,559.000000,,2014-11-26 21:54:00,
2014-11-26 14:04:00,76.0,38.0,-100.00,SW,223,1.0,6.0,25,0.00,,,0.00,559.000000,,2014-11-26 22:04:00,
2014-11-26 14:13:00,76.0,38.0,-100.00,SW,223,1.0,6.0,25,0.00,,,0.00,559.000000,,2014-11-26 22:13:00,
2014-11-26 14:43:00,71.0,32.0,-100.00,SW,217,1.0,8.0,24,0.00,,,0.00,340.000000,,2014-11-26 22:43:00,
2014-11-26 14:53:00,71.0,32.0,-100.00,SW,217,1.0,8.0,24,0.00,,,0.00,340.000000,,2014-11-26 22:53:00,
2014-11-26 15:03:00,71.0,32.0,-100.00,SW,217,1.0,8.0,24,0.00,,,0.00,340.000000,,2014-11-26 23:03:00,
2014-11-26 15:12:00,71.0,32.0,-100.00,SW,217,1.0,8.0,24,0.00,,,0.00,340.000000,,2014-11-26 23:12:00,
2014-11-26 15:43:00,68.0,31.0,-100.00,SW,214,1.0,7.0,25,0.00,,,0.00,71.000000,,2014-11-26 23:43:00,
2014-11-26 15:53:00,68.0,31.0,-100.00,SW,214,1.0,7.0,25,0.00,,,0.00,71.000000,,2014-11-26 23:53:00,
2014-11-26 16:02:00,68.0,31.0,-100.00,SW,214,1.0,7.0,25,0.00,,,0.00,71.000000,,2014-11-27 00:02:00,
2014-11-26 16:12:00,68.0,31.0,-100.00,SW,214,1.0,7.0,25,0.00,,,0.00,71.000000,,2014-11-27 00:12:00,
2014-11-26 16:42:00,62.0,31.0,-100.00,North,-999,0.0,5.0,31,0.00,,,0.00,33.000000,,2014-11-27 00:42:00,
2014-11-26 16:52:00,62.0,31.0,-100.00,North,-999,0.0,5.0,31,0.00,,,0.00,33.000000,,2014-11-27 00:52:00,
2014-11-26 17:02:00,62.0,31.0,-100.00,North,-999,0.0,5.0,31,0.00,,,0.00,33.000000,,2014-11-27 01:02:00,
2014-11-26 17:11:00,62.0,31.0,-100.00,North,-999,0.0,5.0,31,0.00,,,0.00,33.000000,,2014-11-27 01:11:00,
2014-11-26 17:42:00,59.0,29.0,-100.00,North,360,1.0,2.0,32,0.00,,,0.00,7.000000,,2014-11-27 01:42:00,
2014-11-26 17:52:00,59.0,29.0,-100.00,North,360,1.0,2.0,32,0.00,,,0.00,7.000000,,2014-11-27 01:52:00,
2014-11-26 18:02:00,59.0,29.0,-100.00,North,360,1.0,2.0,32,0.00,,,0.00,7.000000,,2014-11-27 02:02:00,
2014-11-26 18:11:00,59.0,29.0,-100.00,North,360,1.0,2.0,32,0.00,,,0.00,7.000000,,2014-11-27 02:11:00,
2014-11-26 18:52:00,58.0,32.0,-100.00,NNE,20,1.0,3.0,37,0.00,,,0.00,0.000000,,2014-11-27 02:52:00,
2014-11-26 19:02:00,58.0,32.0,-100.00,NNE,20,1.0,3.0,37,0.00,,,0.00,0.000000,,2014-11-27 03:02:00,
2014-11-26 19:12:00,58.0,32.0,-100.00,NNE,20,1.0,3.0,37,0.00,,,0.00,0.000000,,2014-11-27 03:12:00,
2014-11-26 19:44:00,55.0,32.0,-100.00,NNE,29,1.0,4.0,41,0.00,,,0.00,0.000000,,2014-11-27 03:44:00,
2014-11-26 19:54:00,55.0,32.0,-100.00,NNE,29,1.0,4.0,41,0.00,,,0.00,0.000000,,2014-11-27 03:54:00,
2014-11-26 20:03:00,55.0,32.0,-100.00,NNE,29,1.0,4.0,41,0.00,,,0.00,0.000000,,2014-11-27 04:03:00,
2014-11-26 20:12:00,55.0,32.0,-100.00,NNE,29,1.0,4.0,41,0.00,,,0.00,0.000000,,2014-11-27 04:12:00,
2014-11-26 20:43:00,54.0,31.0,-100.00,North,-999,0.0,4.0,42,0.00,,,-99.99,0.000000,,2014-11-27 04:43:00,
2014-11-26 20:53:00,54.0,31.0,-100.00,North,-999,0.0,4.0,42,0.00,,,-99.99,0.000000,,2014-11-27 04:53:00,
2014-11-26 21:07:00,54.0,31.0,-100.00,North,-999,0.0,4.0,42,0.00,,,-99.99,0.000000,,2014-11-27 05:07:00,
2014-11-26 21:12:00,54.0,31.0,-100.00,North,-999,0.0,4.0,42,0.00,,,-99.99,0.000000,,2014-11-27 05:12:00,
2014-11-26 21:43:00,55.0,31.0,-100.00,NNE,19,1.0,4.0,39,0.00,,,0.00,0.000000,,2014-11-27 05:43:00,
2014-11-26 21:52:00,55.0,31.0,-100.00,NNE,19,1.0,4.0,39,0.00,,,0.00,0.000000,,2014-11-27 05:52:00,
2014-11-26 22:02:00,55.0,31.0,-100.00,NNE,19,1.0,4.0,39,0.00,,,0.00,0.000000,,2014-11-27 06:02:00,
2014-11-26 22:12:00,55.0,31.0,-100.00,NNE,19,1.0,4.0,39,0.00,,,0.00,0.000000,,2014-11-27 06:12:00,
2014-11-26 22:42:00,55.0,28.0,-100.00,North,-999,0.0,4.0,35,0.00,,,0.00,0.000000,,2014-11-27 06:42:00,
2014-11-26 22:52:00,55.0,28.0,-100.00,North,-999,0.0,4.0,35,0.00,,,0.00,0.000000,,2014-11-27 06:52:00,
2014-11-26 23:02:00,55.0,28.0,-100.00,North,-999,0.0,4.0,35,0.00,,,0.00,0.000000,,2014-11-27 07:02:00,
2014-11-26 23:12:00,55.0,28.0,-100.00,North,-999,0.0,4.0,35,0.00,,,0.00,0.000000,,2014-11-27 07:12:00,